Location: Regensburg
(48.4565°N, 10.3217°E)
Time: 14:36:21
(UTC+02:00)

ISS - Visible Passes

Search period start: 24 July 2017 00:00
Search period end: 03 August 2017 00:00
Orbit: 400 x 408 km, 51.6° (Epoch: 24 July)

Date Brightness Start Highest point End Pass type
(mag) Time Alt. Az. Time Alt. Az. Time Alt. Az.
24 Jul -2.8 00:59:58 10° W 01:03:08 47° N 01:06:19 10° ENE visible
24 Jul -3.3 02:36:40 10° WNW 02:39:55 60° NNE 02:43:09 10° E visible
24 Jul -3.3 04:13:15 10° WNW 04:16:18 37° SSW 04:19:21 10° SE visible
24 Jul -3.6 22:31:09 10° SW 22:34:17 45° SSE 22:37:25 10° ENE visible
25 Jul -3.1 00:07:32 10° W 00:10:45 55° NNW 00:13:58 10° ENE visible
25 Jul -3.0 01:44:20 10° WNW 01:47:32 50° N 01:50:44 10° E visible
25 Jul -3.9 03:20:52 10° WNW 03:24:05 60° SSW 03:27:18 10° SE visible
25 Jul -1.9 04:58:46 10° WSW 05:00:01 12° SW 05:01:14 10° SSW visible
25 Jul -2.9 21:39:15 10° SSW 21:42:05 28° SE 21:44:56 10° E visible
25 Jul -3.6 23:15:08 10° WSW 23:18:22 70° NNW 23:21:38 10° ENE visible
26 Jul -2.8 00:51:58 10° WNW 00:55:07 45° N 00:56:44 24° ENE visible
26 Jul -1.5 02:28:31 10° WNW 02:29:16 16° WNW 02:29:16 16° WNW visible
26 Jul -3.9 22:22:47 10° WSW 22:26:02 83° SSE 22:29:18 10° ENE visible
26 Jul -2.8 23:59:32 10° W 00:02:41 46° N 00:05:20 14° ENE visible
27 Jul -2.2 01:36:11 10° WNW 01:37:55 28° WNW 01:37:55 28° WNW visible
27 Jul -3.0 23:07:03 10° W 23:10:15 51° N 23:13:28 10° ENE visible
28 Jul -3.1 00:43:50 10° WNW 00:46:57 52° N 00:46:57 52° N visible
28 Jul -3.4 22:14:36 10° W 22:17:50 64° NNW 22:21:04 10° ENE visible
28 Jul -2.8 23:51:26 10° WNW 23:54:36 46° N 23:56:05 26° ENE visible
29 Jul -1.3 01:27:58 10° WNW 01:28:42 16° WNW 01:28:42 16° WNW visible
29 Jul -2.8 22:58:58 10° WNW 23:02:08 45° N 23:05:17 10° ENE visible
30 Jul -2.7 00:35:36 10° WNW 00:37:53 41° NW 00:37:53 41° NW visible
30 Jul -2.9 22:06:28 10° W 22:09:39 49° N 22:12:50 10° ENE visible
30 Jul -3.3 23:43:12 10° WNW 23:46:26 56° NNE 23:47:07 44° ENE visible
31 Jul -2.9 22:50:46 10° WNW 22:53:57 48° N 22:56:21 16° ENE visible
01 Aug -2.1 00:27:18 10° WNW 00:28:58 27° WNW 00:28:58 27° WNW visible
01 Aug -2.8 21:58:17 10° WNW 22:01:27 45° N 22:04:36 10° ENE visible
01 Aug -3.9 23:34:53 10° WNW 23:38:09 82° NNE 23:38:14 80° NE visible
02 Aug -3.4 22:42:27 10° WNW 22:45:42 61° NNE 22:47:30 23° E visible
